Temp
6 6 6 6 7 7 7 7 7 7 7 7 7 7 7 7 7 7 8 8 7 7 8 8 8 8 8 7 7 7 7 7 7 7 8 8 7 7 7 7 7 7 7 7 7
6 6 6 6 6 7 7 7 7 7 7 7 7 7 7 7 7 7 7 7 7 7 7 7 7 7 7 7 7 7 7 7 7 7 7 7 7 7 7 7 7 7 7 7 7
5 6 6 6 6 6 6 6 7 7 7 7 7 7 7 7 7 7 7 7 7 7 7 7 7 7 7 7 7 7 7 7 7 7 7 7 6 7 7 7 7 7 7 7 7
5 5 5 6 6 6 6 6 6 7 7 6 7 7 7 7 7 7 7 7 7 7 7 7 7 7 7 7 7 7 7 6 6 6 6 6 6 6 6 6 6 6 6 6 6
5 5 5 5 5 6 6 6 6 6 6 6 6 6 6 6 6 7 7 7 6 6 7 7 7 7 6 6 6 6 6 6 6 6 6 6 6 6 6 6 6 6 6 6 6
4 4 5 5 5 5 5 6 6 6 6 6 6 6 6 6 6 6 6 6 6 6 6 6 6 6 6 6 6 6 6 6 6 6 6 6 6 6 6 6 6 6 6 6 6
4 4 4 4 5 5 5 5 5 6 6 6 6 6 6 6 6 6 6 6 6 6 6 6 6 6 6 6 6 6 6 6 6 6 6 6 6 7 6 6 6 6 6 6 6
3 4 4 4 4 5 5 5 5 5 6 6 6 6 6 6 6 6 6 6 6 6 6 6 6 6 5 5 6 6 5 6 6 6 6 6 7 7 7 6 6 7 7 6 6
3 3 3 4 4 4 4 5 5 5 5 6 6 6 6 6 6 5 5 5 5 5 5 5 5 5 5 5 5 5 6 6 6 6 6 6 6 7 6 6 6 6 6 6 6
2 3 3 3 3 4 4 4 4 4 5 5 5 5 6 6 6 6 5 5 5 5 5 5 5 5 5 5 5 5 6 6 6 6 6 6 6 6 6 6 6 6 6 6 6
2 2 2 3 3 3 3 4 4 4 4 5 5 5 6 6 5 5 5 5 5 5 4 4 4 5 6 5 5 5 5 6 6 6 6 6 6 6 6 6 6 6 6 6 5
1 2 2 2 3 3 3 3 4 4 4 4 5 5 5 5 5 5 5 5 4 4 4 4 4 5 4 4 4 4 4 5 5 5 5 5 6 6 6 6 7 6 6 6 6
1 1 2 2 2 3 3 3 3 3 3 4 4 4 4 4 5 5 4 4 4 4 4 4 4 4 4 4 4 4 4 4 4 4 4 5 6 6 7 7 7 7 7 6 6
0 1 1 1 2 2 2 3 3 3 3 4 4 5 4 4 4 4 4 3 3 4 3 3 3 4 4 4 3 3 4 4 3 3 3 4 3 6 7 7 7 7 7 7 6
-0 0 -0 0 1 2 2 2 2 2 -1 4 4 4 4 3 4 4 3 3 3 3 3 3 3 3 3 3 3 3 3 3 3 3 2 3 3 5 5 6 6 6 6 6 6
-1 -0 -1 -0 -1 1 2 2 2 2 -1 3 3 3 3 3 3 3 3 2 2 2 2 2 2 3 3 2 2 2 2 2 2 1 -2 3 2 4 5 6 6 6 5 5 5
-2 -1 -0 -1 -0 1 1 1 1 1 3 3 4 3 3 2 2 2 2 2 1 1 1 1 2 2 2 2 1 2 2 -0 -2 -3 -3 0 -1 4 4 4 4 4 4 3 3
-1 -1 -0 -0 -0 -0 -0 -0 1 2 3 3 3 3 2 2 2 2 2 2 1 2 2 1 1 1 2 2 2 2 1 2 -2 -3 -2 -2 -1 3 3 3 3 3 2 2 2
-1 -1 -1 -1 -1 -2 -2 -1 0 2 3 3 3 3 3 2 2 2 2 2 2 2 2 2 1 1 1 1 1 0 -0 1 0 -4 -3 0 1 3 3 3 2 1 1 1 1
-2 -1 -1 -1 -1 -2 -3 -2 0 2 3 3 3 3 3 2 2 2 2 3 2 2 2 2 2 1 0 -0 -0 -0 0 -0 -0 -6 -5 -3 -0 3 3 2 1 1 0 -0 -0
-2 -3 -3 -3 -2 -3 -3 -1 0 1 2 2 3 3 3 3 2 2 3 3 3 3 2 1 1 -1 -1 -0 0 -1 -1 -0 -0 -1 -6 -6 0 2 2 2 1 0 -0 -1 -1
-3 -3 -3 -3 -3 -4 -2 -1 -0 0 1 2 2 2 2 3 3 2 3 3 2 2 2 1 0 -0 -0 -0 -1 -1 -1 -0 0 -3 -2 -3 -1 2 1 1 0 -0 -1 -1 -2
-4 -4 -4 -4 -3 -3 -3 -3 -2 -2 -1 0 1 2 2 2 1 2 2 2 2 2 1 1 -1 -1 -2 -2 -2 -1 -1 -1 -1 -1 -1 -4 -1 1 0 -0 -1 -1 -2 -2 -3
-4 -6 -4 -4 -4 -4 -4 -4 -4 -2 -2 -1 -0 1 1 1 1 1 1 1 1 1 0 0 -0 0 -1 0 0 -1 -0 -1 -2 -2 -1 -1 -0 -0 -1 -1 -2 -2 -3 -3 -3
-6 -5 -5 -5 -4 -5 -4 -3 -2 -2 -1 -1 0 0 0 0 0 -0 0 1 0 0 -0 -1 -0 -0 -1 -1 -1 -1 -1 -1 -2 -2 -2 -1 -1 -1 -2 -2 -3 -3 -3 -4 -4
-6 -5 -5 -5 -4 -4 -3 -2 -2 -1 -1 -1 -1 -0 -0 -1 -0 0 -0 -0 -1 -1 -1 -2 -2 -2 -2 -2 -2 -2 -2 -2 -2 -3 -3 -2 -2 -2 -3 -3 -3 -4 -4 -5 -4
-5 -4 -4 -4 -5 -4 -4 -3 -2 -2 -2 -2 -1 -1 -1 -1 -1 -1 -1 -1 -2 -2 -2 -3 -3 -3 -3 -2 -3 -4 -0 -0 -0 -0 -0 -2 -1 -2 -3 -3 -4 -4 -5 -5 -5
Height
3109 3109 3109 3110 3111 3111 3111 3113 3114 3113 3115 3116 3117 3118 3119 3120 3120 3121 3122 3123 3123 3124 3125 3126 3126 3127 3127 3128 3129 3130 3132 3131 3133 3134 3135 3136 3138 3140 3142 3143 3144 3145 3145 3146 3147
3107 3107 3108 3109 3109 3109 3110 3111 3112 3113 3113 3114 3115 3115 3116 3117 3118 3119 3121 3120 3122 3122 3124 3124 3125 3126 3126 3127 3128 3128 3128 3129 3131 3132 3133 3134 3135 3138 3140 3140 3142 3143 3143 3144 3145
3106 3106 3106 3107 3108 3108 3108 3109 3110 3111 3112 3112 3112 3113 3114 3115 3117 3116 3117 3119 3120 3120 3121 3122 3123 3124 3124 3124 3125 3125 3125 3126 3128 3128 3130 3131 3132 3134 3136 3138 3139 3140 3141 3141 3142
3105 3105 3105 3104 3105 3106 3106 3107 3107 3108 3109 3110 3109 3110 3111 3112 3116 3113 3114 3115 3117 3118 3120 3120 3120 3122 3122 3123 3122 3123 3123 3124 3125 3126 3127 3128 3130 3131 3133 3135 3136 3137 3138 3138 3140
3102 3102 3103 3103 3103 3103 3104 3104 3105 3105 3106 3106 3107 3107 3108 3110 3110 3110 3112 3113 3114 3115 3116 3117 3118 3119 3120 3121 3120 3119 3121 3122 3122 3124 3124 3126 3127 3128 3130 3131 3132 3133 3134 3135 3137
3098 3099 3099 3100 3100 3100 3100 3102 3102 3102 3102 3103 3104 3104 3105 3107 3107 3108 3109 3111 3111 3113 3113 3114 3115 3117 3117 3118 3118 3117 3119 3119 3120 3121 3122 3123 3124 3125 3127 3128 3129 3130 3131 3132 3134
3094 3095 3095 3096 3096 3097 3097 3098 3098 3099 3098 3099 3100 3101 3102 3103 3103 3104 3105 3106 3107 3108 3110 3111 3112 3114 3115 3115 3115 3115 3117 3117 3118 3119 3119 3121 3122 3122 3124 3125 3126 3128 3129 3130 3132
3090 3091 3092 3092 3093 3093 3093 3093 3094 3095 3095 3095 3096 3097 3097 3098 3098 3099 3101 3102 3103 3105 3106 3107 3109 3111 3112 3112 3112 3113 3115 3115 3115 3116 3117 3119 3119 3120 3121 3122 3123 3125 3127 3128 3129
3086 3086 3087 3088 3088 3089 3089 3089 3090 3090 3091 3091 3092 3093 3093 3092 3094 3095 3097 3098 3100 3101 3102 3104 3105 3107 3108 3109 3110 3110 3111 3112 3113 3113 3114 3116 3116 3118 3119 3120 3121 3123 3124 3125 3126
3081 3081 3083 3083 3084 3084 3085 3085 3085 3085 3086 3086 3087 3091 3088 3088 3089 3090 3092 3093 3095 3097 3099 3100 3101 3102 3103 3105 3104 3106 3108 3109 3110 3111 3111 3112 3114 3115 3116 3117 3119 3120 3120 3122 3123
3077 3077 3078 3078 3079 3080 3081 3082 3084 3083 3082 3082 3082 3082 3085 3085 3086 3087 3088 3089 3090 3092 3094 3095 3096 3096 3099 3101 3102 3104 3104 3105 3106 3107 3108 3109 3110 3113 3112 3113 3114 3115 3116 3117 3119
3072 3072 3073 3073 3074 3075 3076 3077 3077 3078 3077 3077 3077 3078 3079 3080 3081 3082 3084 3086 3086 3087 3089 3091 3090 3094 3095 3096 3098 3099 3100 3102 3103 3103 3104 3105 3106 3108 3108 3109 3110 3110 3111 3113 3113
3066 3067 3067 3068 3069 3071 3071 3072 3072 3073 3073 3072 3072 3073 3074 3076 3076 3077 3080 3081 3082 3083 3084 3085 3087 3088 3090 3091 3093 3095 3096 3098 3101 3100 3100 3101 3100 3101 3102 3103 3104 3105 3106 3107 3108
3060 3061 3062 3063 3067 3065 3067 3068 3068 3069 3069 3067 3066 3065 3068 3068 3070 3072 3074 3078 3078 3079 3080 3082 3082 3084 3085 3087 3090 3091 3092 3094 3095 3098 3098 3097 3096 3095 3096 3096 3097 3098 3099 3100 3102
3054 3055 3056 3057 3058 3060 3063 3063 3065 3066 3067 3062 3059 3059 3061 3064 3064 3064 3068 3070 3072 3075 3077 3076 3077 3079 3081 3083 3085 3087 3088 3090 3092 3093 3094 3093 3095 3089 3091 3091 3092 3093 3094 3095 3096
3047 3048 3048 3050 3053 3055 3056 3059 3061 3065 3059 3055 3054 3054 3057 3057 3059 3061 3063 3066 3068 3070 3071 3072 3074 3076 3077 3079 3081 3083 3085 3088 3089 3089 3090 3086 3089 3086 3085 3086 3087 3087 3088 3089 3090
3041 3042 3044 3045 3048 3050 3051 3055 3059 3054 3052 3051 3050 3051 3053 3054 3056 3057 3059 3060 3063 3065 3065 3068 3070 3071 3073 3075 3077 3079 3082 3085 3089 3089 3084 3081 3084 3080 3079 3080 3081 3083 3083 3085 3086
3036 3037 3038 3039 3041 3044 3047 3050 3049 3045 3047 3046 3047 3048 3049 3051 3053 3054 3055 3056 3057 3059 3060 3062 3065 3065 3067 3070 3072 3073 3076 3077 3083 3083 3079 3080 3076 3072 3073 3075 3077 3079 3080 3082 3084
3031 3032 3033 3034 3036 3037 3042 3042 3041 3043 3043 3043 3045 3045 3046 3047 3050 3050 3051 3052 3054 3055 3059 3057 3060 3059 3061 3064 3069 3069 3071 3073 3074 3077 3078 3073 3071 3071 3070 3071 3073 3075 3077 3079 3081
3026 3027 3029 3030 3032 3034 3035 3035 3037 3039 3040 3040 3040 3042 3041 3043 3045 3046 3047 3047 3048 3050 3052 3054 3055 3056 3058 3060 3063 3064 3067 3070 3071 3078 3078 3069 3067 3064 3066 3068 3070 3072 3074 3076 3078
3020 3021 3023 3024 3027 3028 3028 3031 3033 3035 3036 3037 3038 3038 3038 3039 3040 3041 3042 3043 3043 3044 3047 3049 3052 3054 3055 3055 3056 3059 3060 3063 3065 3065 3066 3070 3062 3061 3063 3065 3067 3070 3072 3073 3075
3014 3016 3017 3018 3022 3020 3024 3026 3029 3031 3031 3033 3033 3034 3034 3035 3036 3037 3037 3038 3039 3041 3042 3045 3047 3048 3050 3050 3052 3053 3055 3058 3058 3060 3060 3061 3060 3060 3061 3063 3065 3067 3069 3071 3073
3007 3010 3012 3012 3012 3014 3018 3021 3024 3024 3028 3030 3029 3029 3029 3031 3033 3032 3032 3034 3035 3037 3039 3041 3042 3045 3047 3050 3047 3047 3049 3051 3053 3054 3054 3058 3057 3057 3058 3060 3062 3064 3066 3068 3070
3003 3007 3010 3010 3011 3012 3014 3015 3017 3020 3021 3024 3025 3025 3026 3026 3027 3027 3028 3029 3031 3033 3035 3037 3037 3038 3039 3038 3040 3041 3042 3044 3048 3049 3049 3049 3052 3054 3055 3057 3059 3061 3063 3064 3066
2999 3002 3006 3007 3007 3009 3013 3014 3015 3017 3018 3019 3019 3020 3021 3022 3022 3022 3024 3025 3027 3029 3031 3033 3033 3034 3035 3035 3036 3037 3038 3039 3040 3043 3044 3045 3047 3049 3050 3052 3053 3055 3057 3058 3060
3001 3003 3004 3006 3007 3009 3009 3009 3011 3013 3014 3014 3015 3015 3016 3017 3018 3018 3019 3021 3022 3023 3024 3026 3027 3029 3030 3030 3031 3030 3032 3033 3034 3036 3037 3038 3040 3042 3044 3045 3046 3048 3050 3051 3053
3004 3003 3005 3006 3005 3007 3007 3007 3007 3009 3009 3009 3010 3011 3012 3013 3013 3015 3015 3016 3017 3018 3019 3022 3023 3024 3024 3025 3025 3024 3024 3024 3026 3027 3029 3030 3035 3037 3037 3038 3039 3042 3044 3045 3046
Wind_Speed
5 6 8 10 9 9 10 10 10 10 10 9 10 10 9 9 8 9 9 9 9 9 9 9 9 10 11 12 13 13 13 13 12 10 11 11 13 13 12 10 8 6 7 6 5
6 6 8 10 10 9 10 10 11 11 11 11 11 10 10 10 11 11 11 10 11 9 10 9 9 10 10 11 13 14 14 11 13 11 11 12 13 14 13 12 9 8 9 8 7
8 7 8 9 10 11 11 11 11 11 12 12 12 12 12 13 13 12 13 13 11 10 10 10 10 10 10 11 12 12 13 11 11 10 12 12 13 15 14 13 10 11 12 11 9
9 9 9 10 10 11 11 11 11 12 13 13 12 12 11 12 8 10 13 13 14 12 13 11 10 10 11 12 11 11 10 11 11 10 10 11 12 14 14 14 14 14 13 11 9
11 10 11 11 11 11 12 12 12 13 14 14 14 14 13 13 13 12 8 10 12 13 13 11 11 11 12 11 11 10 12 10 10 10 11 11 13 14 14 16 14 13 12 11 10
13 12 12 13 13 13 13 14 14 13 14 15 15 16 16 15 15 16 16 15 12 12 11 12 12 13 12 12 11 9 12 11 11 11 10 10 11 11 9 11 10 10 10 10 10
15 15 14 14 15 14 14 14 14 14 14 14 16 16 16 16 15 15 17 17 15 16 16 15 14 14 13 11 12 12 10 10 11 11 11 9 11 9 11 10 9 8 9 9 9
17 17 17 16 16 16 15 14 15 15 15 15 16 18 19 16 16 16 16 16 17 19 17 15 16 16 15 13 9 12 12 12 11 12 12 10 5 6 8 9 8 9 10 9 9
19 18 18 17 17 17 17 16 15 16 16 16 16 17 20 17 19 17 17 17 18 17 16 17 18 18 17 16 13 13 9 11 11 11 10 11 7 8 7 6 6 9 10 11 10
19 19 18 17 18 17 18 17 17 17 16 17 17 15 20 12 15 18 19 18 19 20 20 19 20 20 20 19 19 17 15 14 11 10 12 12 10 9 9 7 9 10 11 11 12
20 18 18 17 17 17 18 18 17 18 18 18 13 12 17 11 15 16 16 18 20 21 22 22 23 26 21 18 19 16 12 12 13 14 13 14 15 13 14 14 14 14 14 14 14
21 20 18 17 17 18 18 18 17 18 17 17 18 21 21 18 15 14 15 17 19 21 22 23 25 20 20 19 20 20 19 17 14 14 15 17 19 17 18 18 17 17 18 18 19
22 20 21 18 17 17 18 17 16 17 19 22 21 22 21 20 20 18 17 18 19 20 21 22 16 16 22 20 21 20 22 21 17 15 14 17 22 19 21 22 21 22 22 23 23
22 22 20 18 20 18 18 16 16 15 12 17 18 25 26 24 23 23 22 21 21 18 18 16 22 20 15 18 19 21 19 18 16 14 9 11 5 9 14 17 18 20 20 18 19
23 30 26 19 16 18 17 14 16 12 1 9 17 20 18 22 20 19 25 24 22 20 19 14 14 19 22 18 17 19 17 15 15 15 14 16 7 11 20 22 21 20 20 22 22
20 21 22 24 16 15 14 13 12 9 7 8 10 13 17 18 20 15 19 25 24 20 19 20 14 14 17 20 18 15 13 11 11 10 3 18 14 9 17 19 21 21 21 18 16
20 20 18 19 15 16 14 16 12 9 10 10 13 13 13 16 19 16 15 21 20 18 23 22 20 19 15 15 16 18 13 2 1 2 5 8 10 18 15 16 16 15 16 15 14
18 18 17 17 20 20 13 18 14 9 22 6 7 11 14 13 18 17 15 17 21 18 6 19 8 22 21 22 15 19 19 7 7 4 2 8 8 7 15 18 15 12 11 12 14
18 17 16 15 17 17 16 21 15 20 10 21 17 13 15 18 14 18 19 19 18 22 12 10 10 12 16 21 19 17 18 19 3 1 1 5 7 8 10 10 12 13 12 12 13
18 17 15 13 15 13 20 25 23 15 12 13 13 9 11 18 18 14 14 11 22 20 22 12 6 12 15 15 19 18 13 8 9 3 4 4 7 11 9 15 13 10 9 11 12
15 15 21 19 17 17 23 26 27 20 14 12 16 15 16 14 18 18 9 12 12 13 20 22 14 8 14 15 19 21 20 12 9 5 5 2 4 8 11 9 9 8 9 9 11
14 18 16 22 25 25 22 23 22 17 14 16 21 18 17 15 14 17 14 17 11 16 16 19 11 9 13 13 18 21 21 22 9 7 6 3 5 8 9 7 7 7 6 7 9
16 13 14 14 16 21 23 20 20 19 18 18 20 18 19 18 13 17 21 19 17 15 11 15 12 6 2 11 17 19 25 25 25 13 10 7 4 12 12 9 8 6 7 9 10
23 8 12 14 15 14 21 17 18 17 19 17 24 20 18 18 19 11 18 16 18 19 19 15 13 12 11 5 6 13 24 24 24 13 14 19 13 10 12 12 11 12 14 15 16
16 16 5 5 13 17 17 13 11 14 17 20 22 22 19 17 18 21 19 16 15 15 18 18 21 21 22 16 14 13 13 15 21 26 19 18 20 18 20 18 18 18 19 20 22
15 7 11 8 6 7 10 17 19 16 20 19 17 15 15 18 17 10 18 20 19 18 22 23 15 18 19 21 23 25 22 23 24 24 26 27 25 22 21 22 26 24 22 21 21
9 9 2 5 6 11 12 17 6 12 11 13 13 12 13 15 17 20 20 17 17 18 20 21 19 15 8 15 16 15 25 27 27 27 27 30 23 22 24 22 17 16 17 18 20
Wind_Direction
252 244 228 217 222 221 218 225 223 212 216 215 220 221 224 232 240 240 239 237 235 234 236 235 235 233 233 233 231 230 233 242 248 245 238 233 225 224 226 231 239 242 246 244 233
259 243 240 234 232 234 234 232 235 230 225 233 239 243 244 246 243 242 241 240 240 235 233 233 232 232 228 233 231 229 238 248 250 245 240 232 226 227 236 235 238 249 252 246 241
273 261 251 248 244 241 241 241 243 247 243 242 240 240 245 245 245 245 243 237 240 238 237 231 228 233 232 231 233 238 243 241 243 239 236 232 228 232 234 237 240 246 251 245 236
269 265 259 251 254 254 249 250 249 250 255 252 247 245 243 243 240 240 241 240 239 235 235 231 229 234 234 234 237 241 244 240 241 236 231 229 228 230 232 240 248 252 246 241 238
273 266 263 259 254 257 261 255 251 254 255 258 256 250 247 245 239 246 243 235 231 227 226 227 230 233 234 238 238 239 240 239 234 235 231 232 236 240 243 244 243 240 236 230 224
267 266 264 262 257 255 256 264 262 256 257 258 256 251 245 246 242 239 238 232 219 226 232 235 231 235 237 238 238 238 236 238 233 235 236 234 235 234 228 226 222 225 222 220 214
261 263 260 262 265 258 255 258 261 261 256 255 257 255 249 240 243 240 240 238 237 243 241 236 233 233 236 240 238 231 237 233 233 232 235 230 237 229 225 217 219 221 216 211 205
259 258 260 259 261 264 260 255 258 258 259 256 254 255 251 245 243 242 242 238 236 237 234 231 232 232 231 232 234 233 238 237 239 236 236 227 220 199 210 215 207 206 205 206 202
260 259 259 260 259 260 260 259 256 253 253 256 254 257 261 252 246 240 239 237 235 232 230 231 230 231 231 233 235 233 231 232 239 234 224 219 206 212 184 178 205 208 206 212 215
262 261 261 261 261 261 261 256 259 258 254 253 252 254 249 246 242 242 238 237 237 233 233 231 229 230 231 228 229 231 233 238 236 233 228 228 207 200 206 231 236 234 229 225 225
261 260 259 259 260 260 262 259 258 263 258 253 246 243 247 240 236 237 230 231 232 231 231 232 232 235 244 246 246 245 239 240 238 238 239 236 229 225 245 252 252 244 236 233 228
262 258 257 257 258 258 257 259 259 260 262 256 251 247 247 249 246 238 228 227 227 229 229 229 237 242 240 237 238 240 242 240 242 244 251 254 251 246 246 252 255 247 239 234 230
263 261 261 258 260 259 255 255 257 260 264 261 256 253 243 244 242 237 231 231 230 230 231 233 236 237 237 237 236 238 242 247 248 253 254 264 268 257 256 253 252 250 246 242 240
265 265 263 264 256 261 257 251 252 255 261 264 256 247 242 235 240 238 234 232 230 233 229 236 237 237 239 236 234 237 240 242 242 245 243 252 271 247 242 248 247 238 239 235 231
259 263 264 258 262 255 250 249 244 237 317 246 233 232 227 218 233 233 231 228 228 229 219 221 229 232 235 235 228 235 239 241 241 238 246 250 244 258 240 242 241 243 246 246 246
265 260 268 245 244 249 242 241 221 199 242 235 225 223 223 223 224 227 221 222 224 225 227 231 234 229 229 231 226 230 232 235 238 234 230 242 215 229 237 234 238 244 250 250 241
268 263 261 250 243 236 234 227 203 214 220 238 236 228 223 223 220 223 221 214 211 210 225 228 231 231 227 220 216 218 202 165 310 207 218 224 212 232 232 231 232 238 239 232 218
269 263 253 254 241 244 226 204 217 236 221 238 222 224 221 219 221 221 217 217 216 215 206 210 211 223 225 220 218 208 203 196 198 196 197 206 230 231 233 239 234 224 216 214 211
260 250 244 234 231 250 203 209 226 231 233 237 242 228 232 223 222 220 225 227 225 222 215 209 218 213 220 220 214 214 214 223 200 189 343 218 236 235 227 222 218 214 211 208 207
245 231 228 215 218 223 224 222 231 232 229 236 239 238 230 223 212 208 215 231 230 226 224 226 213 217 215 213 215 214 209 190 198 141 231 253 246 231 223 230 225 213 207 207 210
225 243 225 213 211 223 227 231 233 236 242 251 256 236 231 227 222 221 222 228 220 224 223 223 219 213 210 216 219 211 209 204 192 195 167 169 235 211 221 211 200 203 207 211 216
213 219 220 228 248 206 222 231 241 250 261 256 255 246 239 234 230 227 223 227 224 227 221 218 218 222 224 229 222 219 219 219 214 208 198 188 229 193 179 182 192 195 192 198 197
207 227 245 256 249 216 221 235 249 253 254 260 262 250 244 240 229 229 232 235 236 227 219 213 210 181 227 240 230 223 224 224 228 230 201 168 217 216 223 202 183 190 210 218 218
206 175 228 233 247 236 233 245 259 261 252 256 256 250 244 241 235 237 229 234 235 231 222 219 213 213 215 226 203 217 231 227 223 218 231 223 235 209 208 208 218 244 245 239 238
190 196 191 260 248 225 244 250 251 256 252 255 252 248 245 240 238 232 235 231 236 237 236 225 240 235 237 238 231 240 236 228 227 237 238 252 247 246 241 237 242 250 249 243 243
15 260 207 245 249 264 276 255 253 276 250 256 254 246 239 240 241 251 245 242 238 232 226 223 226 236 243 248 253 254 248 244 238 238 241 247 248 250 245 243 256 255 247 243 245
349 331 292 335 256 286 310 258 269 265 274 253 253 259 256 255 261 258 254 243 237 234 230 224 230 238 236 241 248 261 245 244 248 250 253 250 269 256 252 252 233 224 230 244 256